User: anonymous   Login
Location: Unspecified
(0.0000°N, 0.0000°E)
Time: 08:50:51
(UTC+02:00)
Language:

ARIANE 5 R/B - Orbit

View from above orbital plane
View from above orbital plane
View from above satellite
View from above satellite

Ground track
Ground track

The orbit data is extracted from the following two-line orbital elements,

1 28379U 04027B   16206.13636714 -.00000249  00000-0 -14036-2 0  9991
2 28379   7.1405  75.1975 7296088 219.0946 356.1848  2.07923773 91312
Epoch (UTC): 24 July 2016 03:16:22
Eccentricity: 0.7296088
inclination: 7.1405°
perigee height: 633 km
apogee height: 38470 km
right ascension of ascending node: 75.1975°
argument of perigee: 219.0946°
revolutions per day: 2.07923773
mean anomaly at epoch: 356.1848°
orbit number at epoch: 9131

The dashed part of the orbit path shows where the satellite is in the earth's shadow,  

DLR